sat.trackr.live / text

‹ back to catalog

STARLINK-31892

NORAD 59853 · 2024-097U

PAYLOAD ACTIVE UNKNOWN

§ Identity

Operator
Country
US
Launch date
2024-05-23
Launch site
AFETR
Launch vehicle
Mass (kg)
RCS (m²)

Purposes: comms

External: N2YO · Heavens-Above · Gunter

§ Orbital elements

Epoch: 2026-09-21T07:43:34.158432Z

Period
94.27 min
Inclination
42.9999°
Eccentricity
0.0001044
Mean motion
15.27576840 rev/d
Perigee alt
482.3 km
Apogee alt
483.8 km
Semi-major
6,861.2 km
B*
1.9294e-5
RAAN
249.7509°
Arg perigee
276.9449°
Mean anomaly
83.1283°
Rev number
13,183

§ Raw data

STARLINK-318921 59853U 24097U   26264.32192313  .00000269  00000+0  19294-4 0  99912 59853  42.9999 249.7509 0001044 276.9449  83.1283 15.27576840131836

JSON: /api/v1/satellites/59853 · /tle

For live sub-satellite position, see the globe view (requires WebGL).

§ Visibility from observer

Set your observer location to see the next 7 days of passes ≥ 10°. The values pass through the URL so the page stays shareable.

No JS? Fill the form by hand. The geolocation button needs JavaScript.